Regional Weather Roundup
Issued by NWS

Home | Current Version | Previous Version | Text Only | Print | Product List | Glossary On
Versions: 1 2 3 4 5 6 7 8 9 10 11 12 13 14 15 16 17 18 19 20 21 22 23 24 25 26 27 28 29 30 31 32 33 34 35 36 37 38 39 40 41 42 43 44 45 46 47 48 49 50
000
ASUS43 KOAX 152002
RWRNE

WEATHER ROUNDUP FOR NEBRASKA
NATIONAL WEATHER SERVICE OMAHA NE
300 PM CDT MON SEP 15 2014

NOTES: SATELLITE DATA IS BEING USED TO AUGMENT CLOUD COVER ABOVE
       12000 FEET.
       "FAIR" INDICATES FEW OR NO CLOUDS BELOW 12,000 FEET WITH NO
       SIGNIFICANT WEATHER AND/OR OBSTRUCTIONS TO VISIBILITY.

  * THESE STATIONS DO NOT REPORT WEATHER SUCH AS RAIN...SNOW OR FOG.

NEZ001>004-019>022-054>056-152100-
NEBRASKA PANHANDLE

CITY           SKY/WX    TMP DP  RH WIND       PRES   REMARKS
SCOTTSBLUFF    SUNNY     66  46  48 SE14      30.26F
ALLIANCE       SUNNY     64  42  44 S9        30.27F
CHADRON        SUNNY     67  45  45 S9        30.23F
KIMBALL        SUNNY     66  43  43 SE12G20   30.29F
SIDNEY         SUNNY     65  44  46 S10       30.31F
$$

NEZ057>060-069>072-079>082-152100-
SOUTHWEST NEBRASKA

CITY           SKY/WX    TMP DP  RH WIND       PRES   REMARKS
NORTH PLATTE   SUNNY     65  40  39 NE8       30.29F
IMPERIAL       SUNNY     65  42  43 MISG      30.30F
LEXINGTON      SUNNY     65  45  49 E9        30.28F
MCCOOK         SUNNY     68  45  43 NE8       30.29F
OGALLALA       SUNNY     65  43  44 CALM      30.30F
$$

NEZ005>010-023>029-035>040-094-152100-
NORTH CENTRAL NEBRASKA

CITY           SKY/WX    TMP DP  RH WIND       PRES   REMARKS
VALENTINE      SUNNY     64  34  32 E8        30.28F
AINSWORTH      SUNNY     60  35  38 CALM      30.29F
BROKEN BOW     SUNNY     66  41  40 NE10      30.28F
O`NEILL        SUNNY     62  40  45 NW8       30.28F
ORD            SUNNY     63  40  42 N10G18    30.27F
THEDFORD       SUNNY     64  39  39 E5        30.29F
$$

NEZ041-046>049-061>064-073>077-083>087-152100-
SOUTH CENTRAL NEBRASKA

CITY           SKY/WX    TMP DP  RH WIND       PRES   REMARKS
GRAND ISLAND   SUNNY     66  44  45 NE12G17   30.27F
AURORA         SUNNY     65  42  43 N9G16     30.26F
HASTINGS       SUNNY     65  42  43 NE16      30.26F
HEBRON         SUNNY     69  46  43 NE15G23   30.22F
HOLDREGE       SUNNY     64  42  45 NE9G17    30.27F
KEARNEY *      SUNNY     64  43  45 N8        30.28S
YORK           SUNNY     63  46  55 NE13G18   30.26S
$$

NEZ011>018-030>034-042>045-152100-
NORTHEAST NEBRASKA

CITY           SKY/WX    TMP DP  RH WIND       PRES   REMARKS
NORFOLK        MOSUNNY   63  42  46 N13G23    30.26F
ALBION         SUNNY     62  43  49 N7        30.27F
COLUMBUS *     MOSUNNY   63  43  48 N13G20    30.27S
FREMONT        PTSUNNY   61  44  54 N9G17     30.26S
TEKAMAH        PTSUNNY   64  45  49 N12       30.25S
WAYNE          PTSUNNY   60  42  50 N13G18    30.27S
$$

NEZ050>053-065>068-078-088>093-152100-
SOUTHEAST NEBRASKA

CITY           SKY/WX    TMP DP  RH WIND       PRES   REMARKS
LINCOLN        PTSUNNY   65  47  52 NE16      30.24F
OMAHA EPPLEY   MOSUNNY   63  47  55 N18G24    30.24R
BEATRICE       SUNNY     67  49  52 NE15G21   30.22S
FALLS CITY     PTSUNNY   68  53  58 N16G24    30.19R
NEBRASKA CITY  PTSUNNY   64  43  46 NE17G26   30.21S
PLATTSMOUTH    CLOUDY    62  47  59 N9G16     30.23R
$$

NEZ044-045-051>053-067-152100-
OMAHA AREA

CITY           SKY/WX    TMP DP  RH WIND       PRES   REMARKS
OMAHA EPPLEY   MOSUNNY   63  47  55 N18G24    30.24R
FREMONT        PTSUNNY   61  44  54 N9G17     30.26S
MILLARD        MOSUNNY   64  47  54 N8        30.23S
OFFUTT AFB     PTSUNNY   63  51  66 N9G17     30.23R
PLATTSMOUTH    CLOUDY    62  47  59 N9G16     30.23R
WAHOO          MOCLDY    63  43  48 N12G21    30.24F
$$



USA.gov is the U.S. government's official web portal to all federal, state and local government web resources and services.